Bay City, WI

2:51 PM CST on February 26, 2017 (GMT -0600)
Red Wing Municipal

Weather History for KRGK - January, 2014

Change the Weather History Date:

Friday, January 3, 2014

  Actual Average Record
Temperature  
Mean Temperature 5 °F -  
Max Temperature 26 °F 25 °F 44 °F (2007)
Min Temperature -16 °F 10 °F -16 °F (2014)
Degree Days  
Heating Degree Days 60    
Moisture  
Dew Point 0 °F    
Average Humidity 71    
Maximum Humidity 84    
Minimum Humidity 52    
Precipitation  
Precipitation 0.00 in - - ()
Sea Level Pressure  
Sea Level Pressure 29.92 in    
Wind  
Wind Speed 8 mph (SSE)    
Max Wind Speed 20 mph    
Max Gust Speed 34 mph    
Visibility 10 miles    
Events      
Averages and records for this station are not official NWS values.
T = Trace of Precipitation, MM = Missing Value Source: NWS Daily Summary

Daily Weather History Graph

Daily Weather History Graph

Search for Another Location

Airport or City:

Trip Planner

Search our weather history database for the weather conditions in past years. The results will help you decide how hot, cold, wet, or windy it might be!

Date:

Astronomy

Jan. 03, 2014 Rise Set
Actual Time 7:46 AM CST 4:42 PM CST
Civil Twilight 7:13 AM CST 5:15 PM CST
Nautical Twilight 6:36 AM CST 5:52 PM CST
Astronomical Twilight 6:01 AM CST 6:27 PM CST
Moon 9:05 AM CST (1/3) 8:00 PM CST (1/3)
Length of Visible Light 10h 02m
Length of Day
8h 55m
Waxing Crescent, 8% of the Moon is Illuminated
Jan 3
Waxing Crescent
Jan 7
First Quarter
Jan 15
Full
Jan 23
Last Quarter
Jan 30
New

Hourly Weather History & Observations

Time (CST) Temp. Windchill Dew Point Humidity Pressure Visibility Wind Dir Wind Speed Gust Speed Precip Events Conditions
12:01 AM -14.8 °F - -20.2 °F 77% 30.37 in 7.0 mi ESE 2.3 mph - N/A   Clear
12:21 AM -16.6 °F -26.8 °F -22.0 °F 76% 30.36 in 10.0 mi East 3.5 mph - N/A   Clear
12:41 AM -14.8 °F - -20.2 °F 77% 30.36 in 10.0 mi East 2.3 mph - N/A   Clear
1:01 AM -14.8 °F - -20.2 °F 77% 30.37 in 10.0 mi ESE 2.3 mph - N/A   Clear
1:21 AM -14.8 °F -24.8 °F -18.4 °F 84% 30.37 in 10.0 mi ESE 3.5 mph - N/A   Clear
1:41 AM -14.8 °F -27.2 °F -20.2 °F 77% 30.36 in 10.0 mi ESE 4.6 mph - N/A   Clear
2:01 AM -16.6 °F -26.8 °F -20.2 °F 84% 30.35 in 10.0 mi ESE 3.5 mph - N/A   Clear
2:21 AM -14.8 °F -24.8 °F -20.2 °F 77% 30.35 in 10.0 mi SE 3.5 mph - N/A   Clear
2:41 AM -14.8 °F -24.8 °F -20.2 °F 77% 30.33 in 10.0 mi ESE 3.5 mph - N/A   Clear
3:01 AM -14.8 °F -24.8 °F -20.2 °F 77% 30.32 in 10.0 mi ESE 3.5 mph - N/A   Clear
3:21 AM -14.8 °F -27.2 °F -18.4 °F 84% 30.32 in 10.0 mi ESE 4.6 mph - N/A   Clear
3:41 AM -14.8 °F -27.2 °F -18.4 °F 84% 30.30 in 10.0 mi East 4.6 mph - N/A   Clear
4:01 AM -14.8 °F -24.8 °F -20.2 °F 77% 30.28 in 10.0 mi ESE 3.5 mph - N/A   Clear
4:21 AM -13.0 °F -25.1 °F -18.4 °F 77% 30.27 in 10.0 mi SE 4.6 mph - N/A   Clear
4:41 AM -11.2 °F -24.8 °F -16.6 °F 77% 30.25 in 10.0 mi SE 5.8 mph - N/A   Scattered Clouds
5:01 AM -9.4 °F -20.9 °F -14.8 °F 77% 30.24 in 10.0 mi ESE 4.6 mph - N/A   Mostly Cloudy
5:21 AM -5.8 °F -19.9 °F -13.0 °F 71% 30.22 in 10.0 mi SE 6.9 mph - N/A   Mostly Cloudy
5:41 AM -5.8 °F -21.2 °F -11.2 °F 77% 30.21 in 10.0 mi SE 8.1 mph - N/A   Mostly Cloudy
6:01 AM -5.8 °F -22.4 °F -11.2 °F 77% 30.19 in 10.0 mi SE 9.2 mph - N/A   Overcast
6:21 AM -4.0 °F -16.3 °F -9.4 °F 78% 30.18 in 10.0 mi ESE 5.8 mph - N/A   Overcast
6:41 AM -2.2 °F -15.6 °F -9.4 °F 71% 30.18 in 10.0 mi SE 6.9 mph - N/A   Overcast
7:01 AM -0.4 °F -12.0 °F -7.6 °F 72% 30.17 in 10.0 mi SE 5.8 mph - N/A   Overcast
7:21 AM 1.4 °F -12.5 °F -7.6 °F 66% 30.14 in 10.0 mi SE 8.1 mph - N/A   Overcast
7:41 AM 1.4 °F -12.5 °F -5.8 °F 72% 30.12 in 10.0 mi SE 8.1 mph - N/A   Overcast
8:21 AM 3.2 °F -12.2 °F -4.0 °F 72% 30.09 in 10.0 mi SSE 10.4 mph 17.3 mph N/A   Overcast
8:41 AM 3.2 °F -13.1 °F -4.0 °F 72% 30.07 in 10.0 mi SSE 11.5 mph 17.3 mph N/A   Scattered Clouds
9:21 AM 6.8 °F -9.3 °F -4.0 °F 61% 30.04 in 10.0 mi SSE 12.7 mph 17.3 mph N/A   Mostly Cloudy
9:41 AM 8.6 °F -6.3 °F -4.0 °F 57% 30.01 in 10.0 mi South 11.5 mph 21.9 mph N/A   Overcast
10:01 AM 8.6 °F -7.0 °F -5.8 °F 52% 29.99 in 10.0 mi SSE 12.7 mph 24.2 mph N/A   Overcast
10:21 AM 10.4 °F -6.6 °F -4.0 °F 52% 29.96 in 10.0 mi South 16.1 mph 25.3 mph N/A   Overcast
10:41 AM 10.4 °F -6.6 °F -4.0 °F 52% 29.95 in 10.0 mi South 16.1 mph 25.3 mph N/A   Overcast
11:21 AM 12.2 °F -3.1 °F -0.4 °F 57% 29.90 in 10.0 mi SSE 13.8 mph 23.0 mph N/A   Mostly Cloudy
11:41 AM 12.2 °F -3.7 °F -0.4 °F 57% 29.87 in 10.0 mi SSE 15.0 mph 18.4 mph N/A   Mostly Cloudy
12:01 PM 14.0 °F -0.2 °F 1.4 °F 57% 29.85 in 10.0 mi SSE 12.7 mph 26.5 mph N/A   Mostly Cloudy
12:21 PM 14.0 °F -0.8 °F 1.4 °F 57% 29.83 in 10.0 mi South 13.8 mph 26.5 mph N/A   Mostly Cloudy
12:41 PM 15.8 °F 0.9 °F 3.2 °F 58% 29.82 in 10.0 mi SSE 15.0 mph 20.7 mph N/A   Overcast
1:01 PM 17.6 °F 4.3 °F 6.8 °F 63% 29.78 in 10.0 mi South 12.7 mph 23.0 mph N/A   Overcast
1:21 PM 17.6 °F 3.2 °F 6.8 °F 63% 29.76 in 10.0 mi South 15.0 mph 28.8 mph N/A   Mostly Cloudy
1:41 PM 17.6 °F 1.3 °F 8.6 °F 68% 29.74 in 10.0 mi South 19.6 mph 24.2 mph N/A   Overcast
2:01 PM 17.6 °F 2.7 °F 8.6 °F 68% 29.73 in 7.0 mi South 16.1 mph 34.5 mph N/A   Overcast
2:21 PM 17.6 °F 2.7 °F 8.6 °F 68% 29.71 in 7.0 mi South 16.1 mph 24.2 mph N/A   Overcast
2:41 PM 17.6 °F 2.7 °F 10.4 °F 73% 29.71 in 5.0 mi South 16.1 mph 26.5 mph N/A   Overcast
3:01 PM 17.6 °F 2.7 °F 10.4 °F 73% 29.69 in 5.0 mi South 16.1 mph 24.2 mph N/A   Overcast
3:21 PM 19.4 °F 7.2 °F 10.4 °F 68% 29.70 in 7.0 mi SSW 11.5 mph 25.3 mph N/A   Overcast
3:41 PM 17.6 °F 4.3 °F 10.4 °F 73% 29.68 in 5.0 mi South 12.7 mph 24.2 mph N/A   Overcast
4:01 PM 17.6 °F 2.7 °F 10.4 °F 73% 29.67 in 5.0 mi South 16.1 mph 23.0 mph N/A   Overcast
4:21 PM 17.6 °F 6.4 °F 10.4 °F 73% 29.66 in 7.0 mi South 9.2 mph 20.7 mph N/A   Overcast
5:01 PM 19.4 °F 6.6 °F 12.2 °F 74% 29.64 in 10.0 mi South 12.7 mph 24.2 mph N/A   Overcast
5:21 PM 19.4 °F 7.9 °F 12.2 °F 74% 29.64 in 10.0 mi South 10.4 mph 17.3 mph N/A   Overcast
5:41 PM 19.4 °F 5.5 °F 12.2 °F 74% 29.63 in 10.0 mi South 15.0 mph 24.2 mph N/A   Overcast
6:01 PM 19.4 °F 7.2 °F 12.2 °F 74% 29.62 in 10.0 mi South 11.5 mph 23.0 mph N/A   Overcast
6:21 PM 21.2 °F 9.5 °F 12.2 °F 68% 29.61 in 10.0 mi South 11.5 mph 17.3 mph N/A   Overcast
6:41 PM 21.2 °F 10.1 °F 12.2 °F 68% 29.61 in 10.0 mi South 10.4 mph 17.3 mph N/A   Scattered Clouds
7:01 PM 21.2 °F 7.8 °F 12.2 °F 68% 29.61 in 10.0 mi South 15.0 mph 20.7 mph N/A   Clear
7:21 PM 21.2 °F 10.1 °F 14.0 °F 74% 29.60 in 10.0 mi South 10.4 mph 26.5 mph N/A   Clear
7:41 PM 21.2 °F 10.9 °F 14.0 °F 74% 29.59 in 10.0 mi SSW 9.2 mph 18.4 mph N/A   Scattered Clouds
8:01 PM 21.2 °F 7.3 °F 14.0 °F 74% 29.59 in 10.0 mi South 16.1 mph 21.9 mph N/A   Scattered Clouds
8:21 PM 23.0 °F 13.1 °F 15.8 °F 74% 29.58 in 10.0 mi South 9.2 mph 17.3 mph N/A   Clear
8:41 PM 23.0 °F 10.1 °F 15.8 °F 74% 29.56 in 10.0 mi South 15.0 mph 26.5 mph N/A   Clear
9:01 PM 24.8 °F 14.6 °F 15.8 °F 69% 29.56 in 10.0 mi South 10.4 mph - N/A   Clear
9:21 PM 24.8 °F 14.0 °F 15.8 °F 69% 29.55 in 10.0 mi South 11.5 mph 18.4 mph N/A   Scattered Clouds
9:41 PM 24.8 °F 14.6 °F 15.8 °F 69% 29.54 in 10.0 mi South 10.4 mph 18.4 mph N/A   Mostly Cloudy
10:01 PM 24.8 °F 14.0 °F 15.8 °F 69% 29.54 in 10.0 mi South 11.5 mph 19.6 mph N/A   Overcast
10:21 PM 24.8 °F 14.6 °F 17.6 °F 74% 29.53 in 10.0 mi SSW 10.4 mph 18.4 mph N/A   Mostly Cloudy
10:41 PM 24.8 °F 14.0 °F 17.6 °F 74% 29.52 in 10.0 mi South 11.5 mph 19.6 mph N/A   Scattered Clouds
11:21 PM 26.6 °F 18.2 °F 17.6 °F 69% 29.52 in 10.0 mi SW 8.1 mph - N/A   Overcast
11:41 PM 26.6 °F 17.5 °F 19.4 °F 74% 29.51 in 10.0 mi SSW 9.2 mph - N/A   Mostly Cloudy